Dallas, GA

4:52 PM EST on February 21, 2017 (GMT -0500)
Dallas Paulding County Region

Weather History for KPUJ - January, 2014

Change the Weather History Date:

Tuesday, January 21, 2014

  Actual Average (KMGE) Record (KMGE)
Temperature  
Mean Temperature 38 °F -  
Max Temperature 51 °F 49 °F 71 °F (1999)
Min Temperature 24 °F 31 °F 17 °F (2009)
Degree Days  
Heating Degree Days 28    
Moisture  
Dew Point 24 °F    
Average Humidity 51    
Maximum Humidity 64    
Minimum Humidity 37    
Precipitation  
Precipitation 0.00 in - - ()
Sea Level Pressure  
Sea Level Pressure 29.86 in    
Wind  
Wind Speed 11 mph (WNW)    
Max Wind Speed 24 mph    
Max Gust Speed 34 mph    
Visibility 10 miles    
Events      
Averages and records for this station are not official NWS values.
T = Trace of Precipitation, MM = Missing Value Source: NWS Daily Summary

Daily Weather History Graph

Daily Weather History Graph

Search for Another Location

Airport or City:

Trip Planner

Search our weather history database for the weather conditions in past years. The results will help you decide how hot, cold, wet, or windy it might be!

Date:

Astronomy

Jan. 21, 2014 Rise Set
Actual Time 7:42 AM EST 5:59 PM EST
Civil Twilight 7:16 AM EST 6:26 PM EST
Nautical Twilight 6:45 AM EST 6:56 PM EST
Astronomical Twilight 6:15 AM EST 7:26 PM EST
Moon 11:14 PM EST 10:28 AM EST
Length of Visible Light 11h 10m
Length of Day
10h 16m
Waning Gibbous, 75% of the Moon is Illuminated
Jan 21
Waning Gibbous
Jan 24
Last Quarter
Jan 30
New
Feb 6
First Quarter
Feb 14
Full

Hourly Weather History & Observations

Time (EST) Temp. Windchill Dew Point Humidity Pressure Visibility Wind Dir Wind Speed Gust Speed Precip Events Conditions
12:15 AM 50.0 °F - 24.8 °F 37% 29.87 in 10.0 mi West 4.6 mph - N/A   Clear
12:35 AM 50.0 °F - 24.8 °F 37% 29.86 in 10.0 mi WSW 5.8 mph - N/A   Clear
12:55 AM 50.0 °F - 26.6 °F 40% 29.85 in 10.0 mi WSW 6.9 mph - N/A   Clear
1:15 AM 50.0 °F - 26.6 °F 40% 29.84 in 10.0 mi WSW 8.1 mph - N/A   Clear
1:35 AM 50.0 °F - 26.6 °F 40% 29.84 in 10.0 mi West 5.8 mph - N/A   Clear
1:55 AM 50.0 °F - 26.6 °F 40% 29.84 in 10.0 mi WSW 6.9 mph - N/A   Clear
2:15 AM 50.0 °F - 26.6 °F 40% 29.83 in 10.0 mi West 8.1 mph - N/A   Clear
2:35 AM 50.0 °F - 26.6 °F 40% 29.82 in 10.0 mi WSW 6.9 mph - N/A   Clear
2:55 AM 50.0 °F - 26.6 °F 40% 29.81 in 10.0 mi WSW 5.8 mph - N/A   Clear
3:15 AM 50.0 °F - 26.6 °F 40% 29.81 in 10.0 mi WSW 8.1 mph - N/A   Clear
3:35 AM 51.8 °F - 26.6 °F 38% 29.79 in 10.0 mi WSW 8.1 mph - N/A   Clear
3:55 AM 50.0 °F - 26.6 °F 40% 29.79 in 10.0 mi WSW 8.1 mph - N/A   Clear
4:15 AM 50.0 °F - 26.6 °F 40% 29.78 in 10.0 mi WSW 6.9 mph - N/A   Clear
4:35 AM 50.0 °F - 26.6 °F 40% 29.77 in 10.0 mi WSW 8.1 mph - N/A   Scattered Clouds
4:55 AM 50.0 °F - 26.6 °F 40% 29.75 in 10.0 mi WSW 8.1 mph - N/A   Clear
5:15 AM 50.0 °F - 28.4 °F 43% 29.74 in 10.0 mi WSW 8.1 mph - N/A   Clear
5:35 AM 50.0 °F - 28.4 °F 43% 29.74 in 10.0 mi WSW 8.1 mph - N/A   Scattered Clouds
5:55 AM 50.0 °F - 30.2 °F 47% 29.74 in 10.0 mi West 6.9 mph - N/A   Clear
6:15 AM 50.0 °F - 30.2 °F 47% 29.74 in 10.0 mi West 5.8 mph - N/A   Clear
6:35 AM 48.2 °F - 30.2 °F 50% 29.74 in 10.0 mi West 4.6 mph - N/A   Clear
6:55 AM 46.4 °F 42.9 °F 30.2 °F 53% 29.74 in 10.0 mi West 6.9 mph - N/A   Clear
7:15 AM 46.4 °F 42.9 °F 30.2 °F 53% 29.74 in 10.0 mi WNW 6.9 mph - N/A   Clear
7:35 AM 46.4 °F 42.9 °F 30.2 °F 53% 29.75 in 10.0 mi WNW 6.9 mph - N/A   Clear
7:55 AM 46.4 °F 41.5 °F 30.2 °F 53% 29.75 in 10.0 mi NW 10.4 mph - N/A   Clear
8:15 AM 46.4 °F 41.5 °F 30.2 °F 53% 29.76 in 10.0 mi WNW 10.4 mph 17.3 mph N/A   Clear
8:35 AM 46.4 °F 39.8 °F 30.2 °F 53% 29.76 in 10.0 mi NW 16.1 mph 21.9 mph N/A   Clear
8:55 AM 46.4 °F 39.2 °F 30.2 °F 53% 29.78 in 10.0 mi NW 18.4 mph 26.5 mph N/A   Clear
9:15 AM 44.6 °F 38.1 °F 30.2 °F 57% 29.78 in 10.0 mi NW 13.8 mph 34.5 mph N/A   Clear
9:35 AM 44.6 °F 36.6 °F 30.2 °F 57% 29.80 in 10.0 mi NW 19.6 mph 25.3 mph N/A   Clear
9:55 AM 44.6 °F 37.8 °F 28.4 °F 53% 29.81 in 10.0 mi NNW 15.0 mph 24.2 mph N/A   Clear
10:15 AM 44.6 °F 36.6 °F 28.4 °F 53% 29.81 in 10.0 mi NNW 19.6 mph 29.9 mph N/A   Mostly Cloudy
10:35 AM 44.6 °F 36.4 °F 28.4 °F 53% 29.82 in 10.0 mi NNW 20.7 mph 29.9 mph N/A   Overcast
10:55 AM 44.6 °F 36.9 °F 28.4 °F 53% 29.83 in 10.0 mi NW 18.4 mph 21.9 mph N/A   Overcast
11:15 AM 46.4 °F 40.1 °F 26.6 °F 46% 29.82 in 10.0 mi WNW 15.0 mph 23.0 mph N/A   Overcast
11:35 AM 44.6 °F 35.7 °F 24.8 °F 46% 29.82 in 10.0 mi NW 24.2 mph 32.2 mph N/A   Mostly Cloudy
11:55 AM 46.4 °F 38.3 °F 23.0 °F 40% 29.82 in 10.0 mi NW 23.0 mph 29.9 mph N/A   Mostly Cloudy
12:15 PM 46.4 °F 39.8 °F 24.8 °F 43% 29.82 in 10.0 mi NW 16.1 mph 25.3 mph N/A   Overcast
12:35 PM 44.6 °F 37.8 °F 23.0 °F 43% 29.81 in 10.0 mi WNW 15.0 mph 31.1 mph N/A   Overcast
12:55 PM 42.8 °F 33.8 °F 23.0 °F 46% 29.81 in 10.0 mi NW 21.9 mph 33.4 mph N/A   Overcast
1:15 PM 42.8 °F 34.3 °F 24.8 °F 49% 29.82 in 10.0 mi WNW 19.6 mph 31.1 mph N/A   Overcast
1:35 PM 42.8 °F 37.0 °F 26.6 °F 53% 29.82 in 10.0 mi WNW 10.4 mph 26.5 mph N/A   Overcast
1:55 PM 42.8 °F 33.5 °F 26.6 °F 53% 29.83 in 10.0 mi NW 23.0 mph 29.9 mph N/A   Overcast
2:15 PM 41.0 °F 30.9 °F 26.6 °F 57% 29.83 in 10.0 mi NW 24.2 mph 34.5 mph N/A   Overcast
2:35 PM 41.0 °F 33.5 °F 26.6 °F 57% 29.83 in 10.0 mi WNW 13.8 mph 28.8 mph N/A   Mostly Cloudy
2:55 PM 39.2 °F 31.2 °F 26.6 °F 61% 29.83 in 10.0 mi NW 13.8 mph 33.4 mph N/A   Overcast
3:15 PM 39.2 °F 29.8 °F 26.6 °F 61% 29.84 in 10.0 mi NW 18.4 mph 27.6 mph N/A   Overcast
3:35 PM 39.2 °F 28.7 °F 24.8 °F 56% 29.85 in 10.0 mi NW 23.0 mph 32.2 mph N/A   Overcast
3:55 PM 37.4 °F 27.2 °F 23.0 °F 56% 29.86 in 10.0 mi WNW 19.6 mph 32.2 mph N/A   Mostly Cloudy
4:15 PM 35.6 °F 24.8 °F 23.0 °F 60% 29.88 in 10.0 mi NW 19.6 mph 28.8 mph N/A   Overcast
4:35 PM 35.6 °F 25.9 °F 23.0 °F 60% 29.89 in 10.0 mi WNW 16.1 mph 25.3 mph N/A   Overcast
4:55 PM 33.8 °F 22.2 °F 21.2 °F 60% 29.91 in 10.0 mi NW 20.7 mph 29.9 mph N/A   Overcast
5:15 PM 32.0 °F 22.1 °F 21.2 °F 64% 29.93 in 10.0 mi NW 13.8 mph 25.3 mph N/A   Scattered Clouds
5:35 PM 32.0 °F 20.5 °F 21.2 °F 64% 29.94 in 10.0 mi NNW 18.4 mph 24.2 mph N/A   Mostly Cloudy
5:55 PM 32.0 °F 20.5 °F 19.4 °F 60% 29.95 in 10.0 mi NW 18.4 mph 31.1 mph N/A   Overcast
6:15 PM 32.0 °F 22.5 °F 19.4 °F 60% 29.96 in 10.0 mi NW 12.7 mph 21.9 mph N/A   Overcast
6:35 PM 30.2 °F 18.5 °F 17.6 °F 60% 29.97 in 10.0 mi NW 17.3 mph 33.4 mph N/A   Overcast
6:55 PM 30.2 °F 18.9 °F 17.6 °F 60% 29.98 in 10.0 mi NW 16.1 mph 26.5 mph N/A   Overcast
7:15 PM 30.2 °F 18.9 °F 17.6 °F 60% 30.00 in 10.0 mi NW 16.1 mph 29.9 mph N/A   Overcast
7:35 PM 28.4 °F 15.1 °F 15.8 °F 59% 30.00 in 10.0 mi NW 20.7 mph 28.8 mph N/A   Overcast
7:55 PM 28.4 °F 16.2 °F 15.8 °F 59% 30.00 in 10.0 mi NW 17.3 mph 25.3 mph N/A   Overcast
8:15 PM 28.4 °F 15.8 °F 14.0 °F 55% 30.00 in 10.0 mi NW 18.4 mph 27.6 mph N/A   Overcast
8:35 PM 28.4 °F 15.8 °F 14.0 °F 55% 30.00 in 10.0 mi NW 18.4 mph 24.2 mph N/A   Overcast
8:55 PM 28.4 °F 17.0 °F 14.0 °F 55% 30.01 in 10.0 mi NW 15.0 mph 21.9 mph N/A   Overcast
9:15 PM 26.6 °F 13.4 °F 14.0 °F 59% 30.01 in 10.0 mi NW 18.4 mph 23.0 mph N/A   Overcast
9:35 PM 26.6 °F 13.1 °F 14.0 °F 59% 30.02 in 10.0 mi NNW 19.6 mph 28.8 mph N/A   Overcast
9:55 PM 26.6 °F 14.3 °F 14.0 °F 59% 30.01 in 10.0 mi NNW 16.1 mph 24.2 mph N/A   Overcast
10:15 PM 26.6 °F 15.2 °F 12.2 °F 55% 30.02 in 10.0 mi North 13.8 mph 24.2 mph N/A   Overcast
10:35 PM 26.6 °F 13.8 °F 12.2 °F 55% 30.01 in 10.0 mi NNW 17.3 mph - N/A   Overcast
10:55 PM 26.6 °F 14.7 °F 12.2 °F 55% 30.02 in 10.0 mi NW 15.0 mph 20.7 mph N/A   Overcast
11:15 PM 24.8 °F 12.9 °F 12.2 °F 59% 30.02 in 10.0 mi NW 13.8 mph 20.7 mph N/A   Overcast
11:35 PM 24.8 °F 12.4 °F 12.2 °F 59% 30.03 in 10.0 mi NW 15.0 mph 20.7 mph N/A   Overcast
11:55 PM 24.8 °F 11.1 °F 12.2 °F 59% 30.02 in 10.0 mi NW 18.4 mph 24.2 mph N/A   Overcast